Flag for Netherlands Weather past 2 weeks in Apeldoorn, Netherlands

Now
52 °F

Sprinkles. Mostly cloudy.


Feels Like: 49 °F
Forecast: 40 / 54 °F
Wind: 7 mph from Southwest

Location: Deelen

Current Time: Apr 26, 2015 at 4:54:00 AM

Latest Report: Apr 26, 2015 at 3:55 AM


Visibility: 3 mi

Pressure: 29.71 "Hg

Humidity: 94%

Dew point: 50 °F

Location of ApeldoornLocation

Historic Weather in Apeldoorn — Graph

°F

Apeldoorn temperature yesterday

Maximum temperature yesterday: 59 °F (at 12:55 PM)
Minimum temperature yesterday: 46 °F (at 10:55 PM)
Average temperature yesterday: 53 °F

Past Weeks' High & Low Weather Summary

 TemperatureHumidityPressure
High73 °F (Apr 15, 3:55 PM)100% (Apr 11, 12:25 PM)30.48 "Hg (Apr 11, 12:25 PM)
Low28 °F (Apr 19, 5:55 AM)28% (Apr 21, 1:55 PM)29.71 "Hg (Apr 25, 1:55 PM)
Average50 °F70%30.17 "Hg
* Reported Apr 11 3:25 AM — Apr 26 3:25 AM, Apeldoorn, Weather by CustomWeather, © 2015

Note: Actual official high and low records may vary slightly from our data, if they occured in-between our weather recording intervals... More about our weather records

Advertising

Apeldoorn weather history for previous 24 hours

 ConditionsComfort  
Time TempWeatherWind HumidityBarometerVisibility
3:25 AM
Sun, Apr 26
50 °FSprinkles. Mostly cloudy.7 mph94%29.71 "Hg4 mi
2:55 AM50 °FPartly cloudy.1 mph94%29.71 "Hg4 mi
2:25 AM48 °FFog.2 mph94%29.71 "Hg4 mi
1:55 AM48 °FFog.2 mph94%29.71 "Hg5 mi
1:25 AM48 °FFog.3 mph94%29.74 "Hg6 mi
12:55 AM45 °FFog.2 mph100%29.74 "Hg5 mi
12:25 AM45 °FFog.2 mph100%29.74 "Hg5 mi
11:55 PM
Sat, Apr 25
46 °FFog.2 mph93%29.74 "Hg4 mi
10:55 PM46 °FFog.2 mph93%29.74 "Hg6 mi
10:25 PM48 °FClear.3 mph87%29.74 "HgN/A
9:55 PM50 °FPassing clouds.5 mph94%29.74 "HgN/A
9:25 PM52 °FPassing clouds.7 mph82%29.74 "HgN/A
8:55 PM54 °FPassing clouds.7 mph82%29.71 "HgN/A
8:25 PM55 °FPartly sunny.8 mph82%29.71 "HgN/A
7:55 PM57 °FScattered clouds.7 mph82%29.71 "HgN/A
7:25 PM57 °FBroken clouds.6 mph88%29.71 "HgN/A
6:55 PM57 °FBroken clouds.9 mph88%29.71 "HgN/A
6:25 PM57 °FBroken clouds.9 mph88%29.71 "HgN/A
5:55 PM57 °FMostly cloudy.8 mph88%29.71 "HgN/A
5:25 PM55 °FFog.8 mph94%29.71 "Hg4 mi
4:55 PM55 °FDrizzle. Overcast.9 mph94%29.71 "Hg4 mi
4:25 PM54 °FLight rain. Overcast.8 mph94%29.71 "Hg3 mi
3:55 PM54 °FLots of rain. Broken clouds.12 mph94%29.71 "Hg3 mi
3:25 PM59 °FDrizzle. Broken clouds.10 mph72%29.71 "Hg4 mi
2:55 PM59 °FDrizzle. Partly sunny.10 mph72%29.71 "HgN/A
2:25 PM59 °FBroken clouds.10 mph72%29.71 "HgN/A
1:55 PM59 °FPartly sunny.13 mph72%29.71 "HgN/A
1:25 PM57 °FCloudy.13 mph77%29.74 "HgN/A
12:55 PM59 °FPartly sunny.13 mph77%29.74 "HgN/A
12:25 PM55 °FPartly sunny.9 mph82%29.74 "HgN/A
11:55 AM54 °FDrizzle. Broken clouds.10 mph88%29.74 "HgN/A
11:25 AM54 °FMostly cloudy.9 mph88%29.74 "HgN/A
10:55 AM52 °FDrizzle. Mostly cloudy.12 mph94%29.74 "Hg6 mi
10:25 AM54 °FLight rain. Partly sunny.12 mph88%29.74 "Hg5 mi
9:55 AM52 °FFog.10 mph94%29.74 "Hg4 mi
9:25 AM52 °FDrizzle. Broken clouds.10 mph94%29.74 "Hg3 mi
8:55 AM50 °FDrizzle. More clouds than sun.10 mph100%29.74 "Hg2 mi
8:25 AM50 °FDrizzle. Low clouds.9 mph94%29.74 "Hg2 mi
7:55 AM50 °FDrizzle. Cloudy.7 mph94%29.74 "Hg2 mi
7:25 AM52 °FDrizzle. Overcast.7 mph88%29.74 "Hg4 mi
6:55 AM52 °FDrizzle. Mostly cloudy.9 mph82%29.74 "Hg5 mi
6:25 AM52 °FDrizzle. Mostly cloudy.12 mph82%29.74 "HgN/A
5:55 AM52 °FPartly cloudy.9 mph82%29.74 "Hg6 mi
5:25 AM52 °FFog.7 mph82%29.74 "Hg4 mi
4:55 AM52 °FFog.5 mph82%29.74 "Hg4 mi
4:25 AM52 °FFog.5 mph82%29.77 "Hg4 mi
Weather by CustomWeather, © 2015

See weather overviewHow to use our weather pages